Volver al catálogo

FENGYUN 1C DEB

ActivoSSO
NORAD 31462·DEBRIS·🇨🇳 China

Lanzado May 10, 1999 desde Taiyuan Satellite Launch Center

Loading…

Próximos Pases (próximas 24 horas)

TLE

ActualizadoSource: Space-Track

Época: Sep 11, 2026, 06:37 UTC

1 31462U 99025BVA 26254.27618351  .00000326  00000-0  19536-3 0  9991
2 31462  98.6772 269.5714 0032986 147.0405 274.6630 14.13304478997053

Sigue FENGYUN 1C DEB en tiempo real con AllMySat

Download on the App Store